Regional Weather Roundup
Issued by NWS Cleveland, OH

Home | Current Version | Previous Version | Text Only | Print | Product List | Glossary Off
Versions: 1 2 3 4 5 6 7 8 9 10 11 12 13 14 15 16 17 18 19 20 21 22 23 24 25 26 27 28 29 30 31 32 33 34 35 36 37 38 39 40 41 42 43 44 45 46 47 48 49 50

000
ASUS41 KCLE 021602
RWRCLE
OHIO REGIONAL WEATHER ROUNDUP
NATIONAL WEATHER SERVICE CLEVELAND, OH
1200 PM EDT SUN AUG 02 2015

NOTE: "FAIR" INDICATES FEW OR NO CLOUDS BELOW 12,000 FEET WITH NO
SIGNIFICANT WEATHER AND/OR OBSTRUCTIONS TO VISIBILITY.

OHZ001>008-015>018-024>027-034-035-043-044-021700-
   NORTHWEST OHIO

CITY           SKY/WX    TMP DP  RH WIND       PRES   REMARKS
DEFIANCE       SUNNY     84  68  58 SW13      29.90F
FINDLAY        SUNNY     82  68  62 SW9       29.92S
TOLEDO EXPRESS SUNNY     82  67  60 SW14      29.88F
TOLEDO EXEC    SUNNY     84  66  54 SW10      29.89F
LIMA           SUNNY     81  66  60 SW14      29.95S
$$

OHZ009>014-019>023-028>033-038-089-021700-
   NORTHEAST OHIO

CITY           SKY/WX    TMP DP  RH WIND       PRES   REMARKS
CLE-HOPKINS    MOSUNNY   82  65  56 SW10      29.93F
CLE-LAKEFRONT  SUNNY     81  66  60 W8        29.89F
CUY CO. ARPT   PTSUNNY   81  63  54 S8        29.92F
LORAIN-ELYRIA  SUNNY     80  66  62 SW12      29.92S
ASHTABULA      SUNNY     81  58  45 S7        29.92S
AKRON-CANTON   SUNNY     80  63  55 W10       29.94F
WOOSTER        SUNNY     79  66  64 W9        29.95F
MANSFIELD      SUNNY     81  66  60 SW8       29.95F
YOUNGSTOWN     MOSUNNY   79  61  53 SW7       29.94F
$$

OHZ042-051>053-060>062-070>072-077>081-021700-
  SOUTHWEST OHIO

CITY           SKY/WX    TMP DP  RH WIND       PRES   REMARKS
CINC-COVINGTON SUNNY     81  63  54 S9        30.00S
CINC-LUNKEN    SUNNY     82  63  52 S7        29.99S
HAMILTON       SUNNY     84  63  49 VRB5      30.00R
DAYTON         SUNNY     82  63  52 W14       29.99F
WRIGHT-PAT AFB NOT AVBL
DAYTON GENERAL SUNNY     82  59  45 W10       29.99S
WILMINGTON     SUNNY     81  59  47 W10       30.00S
$$

OHZ036-037-039>041-045>050-054>059-063>069-073>076-082>088-021700-
  CENTRAL AND SOUTHEAST OHIO

CITY           SKY/WX    TMP DP  RH WIND       PRES   REMARKS
COLUMBUS       MOSUNNY   83  62  49 NW9       29.96F
OSU AIRPORT    SUNNY     81  64  56 W8        29.96F
BOLTON FIELD   SUNNY     81  64  57 W8        29.98F
RICKENBACK AFB SUNNY     81  63  54 W9        29.97S
NEWARK         SUNNY     83  62  49 W9        29.96F
MARION         SUNNY     81  64  56 W9        29.95F
LANCASTER      SUNNY     81  64  56 W7        29.99S
ZANESVILLE     MOSUNNY   82  61  48 W10       29.97F
NEW PHILLY     MOSUNNY   80  66  62 W7        29.96S
$$


USA.gov is the U.S. government's official web portal to all federal, state and local government web resources and services.